RH
46 47 62 64 44 28 28 21 17 19 13 6 8 6 2 2 2 2 2 2 2 3 4 5 6 11 13 11 21 18 15 14 14 14 16 17 19 37 52 76 88 100 100 89 65 50 51
39 50 58 70 54 33 27 26 18 18 17 9 8 7 2 2 2 3 3 3 3 4 6 9 10 11 13 17 23 22 18 16 16 16 16 20 24 31 74 82 86 90 100 98 84 57 46
42 61 64 67 61 41 31 34 19 20 18 14 7 8 4 3 3 4 4 4 4 5 9 14 14 9 9 17 20 22 22 20 18 18 19 27 39 35 59 98 98 89 81 95 90 71 57
49 51 68 57 63 50 35 34 27 19 18 19 14 8 8 5 5 6 5 4 4 6 8 9 8 8 11 17 17 21 23 22 21 20 21 37 69 67 53 73 100 100 89 76 68 68 65
66 48 73 70 61 59 43 31 35 22 18 19 20 12 10 9 7 8 8 10 9 8 8 8 7 7 8 9 20 25 27 25 25 29 31 49 78 76 75 80 91 100 100 97 80 78 79
80 54 60 69 56 56 57 34 38 33 19 17 19 19 14 11 10 13 13 11 14 14 10 10 9 7 7 11 24 26 27 27 29 38 40 55 87 87 82 88 98 100 100 100 100 99 95
74 81 64 62 59 57 63 49 38 43 29 17 17 20 18 16 12 12 13 13 11 11 12 13 9 9 6 7 16 22 24 25 28 38 41 43 78 80 86 82 94 96 98 100 100 96 94
99 84 78 69 62 59 62 58 52 47 37 20 16 18 20 18 19 13 11 14 13 12 10 12 10 13 12 12 27 35 34 29 27 30 33 40 48 84 90 84 86 83 82 81 84 85 80
100 100 94 77 70 62 68 70 67 55 39 30 20 18 19 20 17 18 15 13 16 13 11 10 9 14 21 24 28 35 34 32 34 38 35 32 38 60 86 92 84 82 93 85 67 53 48
86 85 100 76 80 60 68 72 79 60 44 35 25 22 19 19 20 20 22 15 12 13 14 11 10 12 16 34 44 52 48 32 36 40 40 42 41 44 51 74 81 78 75 62 59 57 49
44 54 100 77 69 79 75 88 84 67 52 48 34 26 25 22 19 22 18 21 17 13 11 15 10 8 19 20 29 48 40 36 34 32 32 30 38 44 45 47 63 71 64 62 68 68 52
26 28 100 98 69 70 81 80 89 81 59 46 41 31 32 30 28 21 21 20 21 21 14 11 10 9 7 12 25 37 39 34 33 36 32 32 34 37 40 40 39 38 39 38 40 38 35
30 28 93 100 73 80 68 84 95 73 69 43 47 46 26 30 31 25 21 19 21 19 22 15 13 9 9 7 8 18 32 34 37 37 35 33 32 33 34 36 37 35 30 30 32 35 37
26 28 46 100 92 92 74 78 82 76 74 60 44 48 43 31 37 31 26 22 19 19 20 19 22 14 12 10 9 8 10 21 32 34 36 38 40 41 43 43 40 36 32 32 34 35 38
25 26 78 99 100 92 95 65 84 86 68 83 56 50 53 44 40 35 32 30 23 16 19 20 21 23 23 15 12 10 13 17 18 22 28 32 38 40 41 42 43 40 38 38 41 44 46
25 23 24 78 100 92 89 86 81 85 75 70 88 51 44 57 57 41 36 39 31 26 20 22 19 20 20 23 26 19 16 13 12 15 19 22 27 31 36 38 40 45 45 46 46 47 46
20 23 22 30 100 97 90 96 76 82 73 65 63 57 49 40 78 70 42 50 44 36 31 21 24 22 19 21 22 25 27 25 20 18 16 15 14 14 15 15 18 22 28 31 32 29 27
19 19 18 18 100 100 100 90 91 72 89 79 72 68 54 48 58 78 78 55 65 52 43 41 31 28 26 25 20 20 23 23 29 30 29 26 20 19 19 20 20 20 20 20 22 22 24
16 16 16 20 100 100 100 100 93 94 82 70 76 79 73 65 60 62 63 68 71 65 58 51 43 43 34 31 30 28 21 20 23 23 25 31 34 34 31 32 30 29 27 28 27 26 29
14 14 15 27 82 100 100 92 87 98 83 81 80 73 91 79 73 70 97 66 71 73 62 71 56 53 43 52 42 36 37 29 24 22 24 25 25 25 26 29 30 32 37 38 37 38 36
12 15 20 51 81 100 99 100 99 100 87 100 73 81 71 76 78 75 80 100 92 82 72 80 73 74 75 55 57 63 42 35 36 32 30 28 34 32 30 31 31 28 25 24 24 26 27
20 21 49 71 82 94 100 100 100 98 92 100 95 84 75 81 86 94 85 82 96 96 93 95 78 73 84 76 54 77 76 62 50 38 36 29 50 42 42 31 35 37 38 39 37 34 37
43 40 53 69 92 100 85 100 100 88 80 100 100 98 90 82 91 100 88 98 89 99 97 98 100 93 92 73 70 66 70 87 72 65 48 39 35 42 53 64 44 33 42 42 44 53 54
98 94 100 92 92 100 100 100 100 100 100 100 100 100 92 72 81 100 99 92 100 100 97 97 95 100 100 100 69 71 76 87 89 83 87 61 54 43 57 79 87 62 43 41 44 38 48
100 100 100 100 100 100 100 100 100 100 100 100 97 100 84 78 100 99 100 100 100 100 100 100 100 98 98 100 100 98 92 69 100 96 96 99 88 78 74 51 50 99 81 61 58 50 48
100 100 100 100 100 100 100 100 100 100 100 100 100 100 88 89 100 95 100 100 100 100 100 100 97 99 99 94 100 100 100 92 93 100 84 86 94 100 98 94 59 43 80 59 58 56 46
100 100 100 100 100 100 100 100 100 100 100 100 100 100 100 100 100 100 98 100 100 100 100 94 98 100 97 100 100 100 100 100 96 84 93 89 67 83 92 100 100 100 83 74 77 51 56
100 100 100 100 100 100 100 100 100 100 100 100 100 100 100 100 100 100 100 100 100 100 100 100 100 100 100 100 100 100 100 100 100 100 100 87 85 82 79 100 96 83 93 100 81 60 55
100 100 100 100 100 100 100 100 100 100 100 100 100 100 100 100 100 100 100 100 100 100 100 100 100 100 100 100 100 100 100 100 100 100 100 100 100 83 96 100 98 63 73 71 86 82 85
Wind_Speed
65 72 80 87 97 105 112 118 124 129 116 91 77 66 53 42 25 16 9 17 27 37 50 63 71 82 94 86 88 93 99 109 109 108 106 105 101 97 98 96 94 91 87 84 79 76 72
67 72 78 85 95 101 109 116 120 128 127 103 84 72 58 48 31 18 12 17 28 37 50 59 70 83 88 86 87 86 90 99 106 105 106 102 103 100 95 97 95 92 89 86 81 78 76
69 71 77 83 91 97 106 111 119 126 133 115 95 79 67 52 41 27 17 16 31 44 55 59 66 75 88 89 84 80 81 89 98 103 105 104 102 100 97 91 93 91 89 87 84 79 77
65 71 75 82 87 94 102 109 114 123 126 127 109 88 75 62 51 39 27 14 21 41 46 50 57 67 73 77 77 75 74 75 84 92 99 101 96 94 93 93 88 88 89 86 83 79 76
64 69 71 79 83 90 96 106 110 119 122 128 127 106 87 73 62 49 35 24 12 6 23 37 43 51 61 66 72 71 66 67 73 80 87 96 92 89 89 88 89 87 86 87 86 83 80
63 66 71 75 80 86 90 99 104 112 117 121 127 122 101 84 68 56 45 31 19 6 3 15 17 41 61 67 68 62 61 61 66 73 80 94 90 87 84 83 83 83 85 86 86 87 85
60 63 67 73 76 81 85 94 99 105 113 113 120 122 114 98 80 61 48 38 29 19 11 6 6 14 28 48 54 50 46 48 56 67 76 88 89 87 84 81 79 80 83 84 85 87 87
54 59 62 70 73 77 82 86 94 98 105 109 113 117 118 114 99 74 58 49 39 30 24 18 12 4 7 26 43 38 40 41 46 58 69 80 89 88 83 79 78 78 79 80 81 81 80
52 51 57 64 71 73 76 80 87 93 97 103 107 111 114 115 111 97 77 58 40 33 27 22 17 19 6 19 37 35 35 36 37 44 53 64 77 85 83 80 79 77 75 75 75 73 71
49 53 48 59 65 69 73 75 81 86 90 96 99 104 107 112 113 110 97 77 56 39 32 24 16 13 19 20 30 31 33 33 34 33 41 52 60 69 80 80 77 77 76 75 74 73 70
45 51 40 53 60 64 69 70 75 80 84 88 91 96 100 105 111 111 107 95 77 60 42 27 19 9 20 26 33 34 37 38 37 33 30 33 44 58 67 73 78 79 79 78 78 77 75
50 56 39 46 54 58 63 65 68 72 78 81 84 88 91 96 100 106 105 105 93 81 59 43 25 18 6 28 39 42 40 35 36 37 37 36 38 43 49 56 60 64 68 71 73 73 71
47 51 42 41 50 52 58 59 61 66 71 77 77 80 85 87 91 95 99 99 98 95 84 64 48 29 17 5 22 38 42 39 36 35 34 35 37 38 40 43 45 46 45 46 48 48 49
46 48 44 33 44 45 52 54 56 61 64 70 72 73 77 81 84 88 92 97 95 95 97 84 73 53 38 20 8 10 23 32 33 32 32 35 36 36 37 39 40 38 37 35 34 37 40
45 46 33 32 37 40 44 50 52 54 60 60 65 66 68 72 76 80 84 87 88 89 89 90 90 77 65 46 29 13 6 14 22 27 31 33 35 36 37 37 37 37 36 36 36 39 42
43 45 43 33 31 34 38 44 47 48 53 58 55 60 62 64 67 73 77 77 79 85 88 84 88 88 83 72 60 43 24 10 4 13 22 28 35 38 41 42 43 42 43 44 44 45 48
44 45 40 40 28 31 34 36 44 45 48 52 56 55 57 61 58 61 69 68 70 74 80 81 82 83 80 80 77 66 55 42 28 16 5 3 11 15 21 27 35 40 44 46 47 49 50
46 43 41 43 23 25 31 35 39 44 44 48 51 51 53 55 54 53 56 62 60 65 68 73 75 78 78 77 72 74 70 62 51 43 37 27 16 7 1 6 11 15 20 24 27 31 33
46 44 40 35 18 22 24 30 35 38 41 46 48 50 49 44 46 47 51 53 56 58 59 61 66 68 70 72 73 68 67 68 65 63 52 41 34 30 27 21 15 9 6 4 6 7 9
45 43 39 28 24 21 23 28 34 36 40 41 46 47 44 44 41 42 39 48 49 53 54 50 56 58 61 61 62 65 64 65 65 60 61 54 49 39 31 27 22 20 19 17 14 10 9
45 40 33 29 26 21 29 31 36 34 37 34 43 45 47 44 41 38 36 35 38 45 48 44 48 51 51 54 55 53 58 60 59 57 55 52 55 51 43 43 40 33 27 24 22 20 20
36 35 33 32 31 25 26 33 34 39 39 40 42 43 45 43 38 34 33 34 33 36 38 38 39 41 43 48 50 47 47 50 52 53 51 48 46 48 47 45 43 39 36 36 34 30 30
41 39 37 37 32 30 33 31 37 41 42 40 41 40 43 41 36 30 30 28 31 30 35 37 33 36 34 38 44 45 42 40 44 44 44 45 43 41 42 41 41 43 39 35 33 31 29
45 43 41 40 37 36 36 31 36 38 44 40 39 40 41 39 36 30 30 31 21 32 33 34 37 29 32 35 39 40 40 36 36 38 36 38 37 37 35 35 33 36 36 37 36 30 29
52 49 47 46 44 44 40 42 42 43 40 43 43 43 41 39 31 34 32 31 28 31 35 39 41 37 32 32 34 36 33 38 32 33 32 32 33 36 36 33 30 30 33 38 36 37 34
57 54 52 51 51 50 47 43 46 41 44 43 40 43 40 39 34 34 29 32 33 40 40 40 42 42 35 34 33 34 27 36 35 30 32 32 31 31 34 39 37 32 31 35 37 37 35
67 64 58 61 60 61 57 51 52 48 46 46 46 37 36 41 42 34 33 38 39 45 45 45 44 41 39 36 32 35 34 37 39 40 37 35 34 35 32 33 32 32 38 41 39 39 37
77 74 70 67 65 66 63 61 60 55 48 48 47 37 42 48 53 38 42 46 48 45 46 46 46 46 38 40 42 43 43 41 44 45 46 45 42 38 34 38 45 41 38 43 46 44 43
85 81 83 77 75 72 69 68 65 63 60 59 55 54 54 57 44 53 59 58 50 54 51 46 49 49 53 55 54 53 50 51 52 50 54 50 49 46 45 44 49 50 47 46 47 48 49
Wind_Direction
17 14 13 13 15 17 18 18 19 21 21 20 19 18 20 25 28 48 101 160 170 177 186 191 194 197 206 208 208 212 213 213 216 217 216 219 220 223 225 227 229 231 232 235 236 237 239
16 16 16 14 17 18 20 18 19 21 23 22 23 22 25 26 34 45 91 144 155 162 174 185 192 196 202 203 207 210 212 213 215 215 216 218 221 220 223 225 227 231 233 236 237 237 240
13 16 17 15 16 18 21 20 20 21 23 24 25 27 29 30 40 47 71 127 147 165 176 182 190 198 201 201 206 209 211 211 215 215 217 217 220 221 221 224 227 229 233 236 238 239 240
14 16 17 17 16 19 20 21 20 21 24 28 29 29 33 35 45 48 52 71 161 173 182 187 195 198 201 201 206 207 210 212 213 216 218 217 219 222 224 225 225 230 233 236 239 241 241
14 15 16 18 17 18 20 21 21 21 24 28 31 32 30 37 42 50 54 58 62 191 197 196 198 198 200 200 202 205 210 210 212 215 216 215 217 222 224 227 228 229 232 236 239 243 245
11 14 15 18 17 17 18 20 21 21 23 24 30 33 35 34 36 45 51 54 64 93 152 232 233 206 198 194 198 203 205 209 212 213 214 214 218 221 225 228 230 232 235 237 239 242 246
6 11 13 16 16 17 17 20 22 22 21 23 28 33 37 38 37 37 44 51 54 58 56 47 217 226 224 201 199 205 209 212 212 211 214 215 218 223 226 229 232 235 237 239 242 245 247
358 7 11 11 15 17 17 19 20 22 22 23 26 30 35 39 40 38 38 41 48 49 54 58 64 65 222 201 193 202 208 210 211 215 216 218 220 222 226 229 232 235 239 241 244 246 249
356 2 7 9 11 15 18 18 21 21 24 23 25 29 32 37 40 42 39 38 41 43 39 56 66 108 140 194 194 206 211 213 211 214 220 221 223 224 226 230 234 237 240 243 246 249 251
351 359 4 6 11 13 18 16 18 21 23 23 24 27 31 32 37 40 42 40 41 46 41 37 50 102 155 182 201 205 216 212 214 213 219 224 227 227 229 231 235 239 242 247 251 254 256
357 2 356 1 8 11 15 16 18 19 22 23 24 26 29 30 31 35 42 42 41 43 43 52 44 79 156 189 192 204 204 207 214 218 219 220 223 229 230 232 236 239 244 248 251 254 257
346 352 351 355 3 7 12 17 17 19 20 22 23 26 28 30 29 32 38 44 43 44 42 44 49 65 174 189 193 200 213 217 217 217 217 218 219 222 228 232 237 242 247 250 252 253 255
340 343 351 349 358 4 9 14 15 17 20 22 25 25 26 29 30 31 33 41 41 46 47 47 46 48 71 138 201 201 206 214 221 222 226 228 226 225 228 233 239 246 250 250 250 252 254
333 337 346 340 352 359 4 10 14 15 19 20 23 26 25 27 29 30 32 35 37 42 45 48 50 50 49 60 105 214 218 220 224 228 229 231 231 233 237 241 244 246 247 246 245 246 249
325 332 341 333 336 354 358 5 8 12 15 18 21 25 25 26 28 28 29 34 33 38 41 47 49 52 53 55 58 77 173 238 244 246 243 242 245 248 251 253 254 254 254 253 252 255 257
317 323 327 334 327 348 354 356 3 8 11 15 20 21 23 25 26 26 26 31 32 32 36 40 43 47 52 54 56 57 59 67 187 232 241 247 251 252 254 254 255 254 254 256 258 259 261
310 315 321 324 320 337 344 348 354 2 5 9 14 15 19 21 24 25 27 30 31 31 30 35 36 40 47 52 53 53 57 60 62 60 69 201 226 236 244 247 249 250 252 254 257 261 263
303 305 315 317 316 318 332 338 344 353 360 1 7 11 15 16 23 23 24 27 30 33 32 30 32 34 36 40 41 46 53 55 56 58 61 62 59 52 300 241 239 243 248 254 257 261 263
296 297 307 312 312 316 319 321 335 345 351 354 358 3 6 15 18 20 19 22 26 26 29 32 31 30 29 31 34 35 44 44 51 54 56 57 59 62 65 65 65 50 28 307 299 298 292
290 295 300 299 293 301 307 314 325 335 341 346 348 354 360 3 11 15 18 18 21 18 21 26 24 28 28 28 29 31 32 31 35 38 47 55 58 62 69 76 81 85 93 95 100 105 101
286 290 289 290 293 287 293 293 317 323 331 331 342 346 348 353 360 1 10 13 16 17 15 20 17 22 26 26 26 27 24 24 26 31 34 36 39 52 60 60 61 64 71 76 80 82 77
283 284 285 286 289 287 285 292 300 309 323 328 333 336 339 344 348 352 358 3 6 13 14 14 12 17 19 16 18 21 20 20 19 21 23 31 31 28 33 46 49 50 51 55 57 57 57
280 281 280 282 281 287 293 285 293 303 314 318 322 324 332 336 338 343 346 348 355 355 358 2 356 359 6 10 7 9 12 14 13 14 17 17 22 23 22 20 25 33 37 40 40 39 40
278 278 279 278 281 285 285 277 284 291 300 307 310 313 320 328 331 333 333 338 331 335 338 344 349 342 347 346 347 356 0 2 3 4 5 7 11 13 11 14 13 9 20 22 25 25 24
274 275 274 274 275 280 278 284 291 288 290 296 302 306 312 320 316 321 320 322 321 323 326 326 333 333 330 328 331 339 345 351 348 352 356 355 355 357 357 355 359 358 353 1 3 6 7
266 266 271 271 274 276 278 273 275 281 279 289 284 294 299 309 305 308 308 304 307 310 310 316 318 322 322 320 319 318 325 332 337 335 336 340 340 339 339 341 339 340 340 343 344 346 350
266 265 262 265 267 271 274 273 274 279 278 276 285 294 277 289 293 296 298 291 291 304 307 309 311 310 312 311 310 304 313 305 322 323 321 320 322 324 327 322 323 321 322 323 329 331 329
265 267 265 264 266 268 270 271 275 275 272 275 279 266 274 279 293 286 277 285 293 295 296 299 301 300 299 296 298 300 302 303 302 311 311 313 313 308 311 310 308 313 311 307 318 322 325
262 265 268 268 266 267 269 271 272 273 272 271 268 272 271 275 279 273 275 287 286 285 285 282 286 287 286 287 288 290 293 296 297 299 300 302 303 305 304 301 297 303 303 301 306 310 308